Regional Weather Roundup
Issued by NWS

Home | Current Version | Previous Version | Graphics & Text | Print | Product List | Glossary On
Versions: 1 2 3 4 5 6 7 8 9 10 11 12 13 14 15 16 17 18 19 20 21 22 23 24 25 26 27 28 29 30 31 32 33 34 35 36 37 38 39 40 41 42 43 44 45 46 47 48 49 50
000
ASUS45 KBOU 250007
RWRCO

WEATHER ROUNDUP FOR COLORADO
NATIONAL WEATHER SERVICE DENVER/BOULDER CO
500 PM MST WED DEC 24 2014

NOTE: "FAIR" INDICATES FEW OR NO CLOUDS BELOW 12000 FEET WITH NO
SIGNIFICANT WEATHER AND/OR OBSTRUCTIONS TO VISIBILITY.

COZ001>005-013-030-031-250100-
...NORTHWEST COLORADO...

CITY           SKY/WX    TMP DP  RH WIND       PRES   REMARKS
CRAIG          CLOUDY    27  12  53 E7        29.81F WCI  19
HAYDEN         CLOUDY    23   7  50 SE8       29.80F WCI  14
MEEKER         CLOUDY    24  14  65 CALM      29.83F
MOUNT WERNER   NOT AVBL
STEAMBOAT SPGS CLOUDY    18   9  67 CALM      29.82F
WALDEN         CLOUDY    19  10  68 SE7       29.74F WCI  10
$$

COZ006>008-011-250100-
...WEST CENTRAL VALLEYS...

CITY           SKY/WX    TMP DP  RH WIND       PRES   REMARKS
GRAND JUNCTION CLOUDY    29  23  78 CALM      29.92F
MONTROSE       CLOUDY    31  15  52 N5        29.92F WCI  26
EAGLE          CLOUDY    21   5  49 CALM      29.92F
RIFLE          CLOUDY    29  13  51 CALM      29.92F
DELTA          CLOUDY    34  13  42 CALM      29.92F
NUCLA          CLOUDY    32  12  43 W3        29.95F
$$

COZ017>023-064>068-250100-
...SOUTHWEST COLORADO...

CITY           SKY/WX    TMP DP  RH WIND       PRES   REMARKS
DURANGO        MOCLDY    31   6  35 CALM      29.97F
CORTEZ         CLEAR     32  15  49 CALM      29.97F
PAGOSA SPRINGS MOCLDY    29   4  34 CALM      29.97S
TELLURIDE      CLOUDY    31  12  45 W3        29.93S
WOLF CREEK PAS PTCLDY    16   5  62 MISG      29.94F
$$

COZ009-010-012-014-032>034-037-058>063-250100-
...CENTRAL COLORADO...

CITY           SKY/WX    TMP DP  RH WIND       PRES   REMARKS
ASPEN          PTCLDY    17   7  64 S6        29.86F WCI   9
BUENA VISTA    CLEAR     32  11  42 S7G21     29.78F WCI  25
COPPER MTN     PTCLDY    23  14  68 SW5       29.84F WCI  17
BERTHOUD PASS  FAIR      18  12  79 MISG      29.72F
COTTONWOOD PAS CLEAR     34  12  40 NW9G21    29.78F WCI  26
GUNNISON       PTCLDY     7  -2  66 NE3       29.98F
KREMMLING      MOCLDY     9   1  72 CALM      29.87F
LEADVILLE      PTCLDY    28   9  44 VRB5      29.80F WCI  23
MONARCH PASS   PTCLDY    14  10  85 W44       29.93F WCI -10
SALIDA         CLEAR     35  10  36 SW24G33   29.84F WCI  23
SUNLIGHT       MOCLDY   N/A N/A N/A MISG      29.87F HAZE
WILKERSON PASS PTCLDY    23  12  63 SW8       29.83F WCI  14
$$

COZ069>075-250100-
...SAN LUIS VALLEY/SANGRE DE CRISTO MOUNTAINS...

CITY           SKY/WX    TMP DP  RH WIND       PRES   REMARKS
ALAMOSA        PTCLDY    21   5  50 E6        29.91S WCI  13
LA VETA PASS   CLEAR     18   1  49 MISG      29.80F
SAGUACHE       PTCLDY    10   3  72 N6        29.93F WCI   1
$$

COZ035-036-038>040-250100-
...NORTHERN COLORADO FRONT RANGE...

CITY           SKY/WX    TMP DP  RH WIND       PRES   REMARKS
DENVER INTL AP MOCLDY    38  17  42 S8        29.61F
DMNS CITY PARK   N/A     47  16  28 SE3G9     29.59F
AURORA         MOCLDY    41  19  40 S5        29.62F
FRONT RANGE AP NOT AVBL
ERIE MUNI ARPT   N/A     50  10  20 W13G23    29.60F
BOULDER MUN AP CLOUDY    48  14  25 W14       29.59F
CENTENNIAL     CLOUDY    42  24  49 S8        29.61F
BROOMFIELD     MOCLDY    50  12  22 NW16      29.61F
FORT COLLINS   CLOUDY    34  12  40 N3        29.62F
LONGMONT       CLOUDY    50  15  24 SW6       29.61F
$$

COZ041-046-047-076>085-087-088-250100-
...PIKES PEAK/PALMER DIVIDE AND SOUTHERN FOOTHILLS...

CITY           SKY/WX    TMP DP  RH WIND       PRES   REMARKS
COLO. SPRINGS  CLOUDY    34   9  35 SE3       29.70F
A. F. ACADEMY  MOCLDY    33  14  46 S3        29.69F
ELLICOTT       NOT AVBL
FALCON         CLOUDY    29  15  55 CALM      29.70F
FORT CARSON    CLOUDY    34  14  44 W3        29.68F
LIMON          CLOUDY    36  15  42 S10       29.66F
MONUMENT HILL  MOCLDY    34  21  60 S7        29.66F WCI  28
TRINIDAD       PTCLDY    28  20  71 W8        29.72F WCI  20
$$

COZ042>045-048>051-090-091-250100-
...NORTHEAST COLORADO...

CITY           SKY/WX    TMP DP  RH WIND       PRES   REMARKS
GREELEY ARPT   CLOUDY    34  10  37 NE3       29.59F
AKRON          MOCLDY    36  24  62 S9        29.62F
BURLINGTON     PTCLDY    35  19  52 S15       29.67F WCI  25
WRAY           PTCLDY    37  27  65 SW7       29.63F
STERLING       MOCLDY    28  23  80 SW6       29.62F WCI  22
HOLYOKE        PTCLDY    36  28  75 SW7       29.62F
FORT MORGAN    MOCLDY    33  18  54 NE6       29.62F WCI  28
$$

COZ086-089-092>099-250100-
...SOUTHEAST COLORADO...

CITY           SKY/WX    TMP DP  RH WIND       PRES   REMARKS
PUEBLO         MOCLDY    35  17  47 NE5       29.67F WCI  31
LA JUNTA       PTCLDY    40  18  41 S7        29.69F
LAMAR          CLEAR     37  15  40 S7        29.69F
SPRINGFIELD      N/A     33  16  49 SW7       29.74F WCI  27
$$


USA.gov is the U.S. government's official web portal to all federal, state and local government web resources and services.